Location: Arrington
(35.8681°N, 86.7092°W)
Time: 22:04:22
(UTC+00:00)

Tsikada Rocket - Pass Details

Date: 23 November 2019
Orbit: 959 x 1008 km, 82.9° (Epoch: 05 December)

Event Time Altitude Azimuth Distance (km) Brightness Sun altitude
Rises 10:55:11 0° 353° (N) 3,726 6.9 -19.2°
Reaches altitude 10° 10:57:44 10° 353° (N) 2,767 6.2 -18.7°
Maximum altitude 11:04:06 86° 266° (W) 993 4.0 -17.4°
Drops below altitude 10° 11:10:20 10° 177° (S) 2,716 6.5 -16.2°
Sets 11:12:49 0° 177° (S) 3,653 7.2 -15.7°
